User: anonymous   Login
Location: Laterina
(43.5167°N, 11.7167°E)
Time: 02:51:36
(UTC+00:00)
Language:

Cosmos 2195 Rocket - Orbit

View from above orbital plane
View from above orbital plane
View from above satellite
View from above satellite

Ground track
Ground track

The orbit data is extracted from the following two-line orbital elements,

1 22007U 92036B   20337.88744705  .00000039  00000-0  23469-4 0  9999
2 22007  82.9334  78.3467 0030501  18.0006 342.2225 13.77971317357394
Epoch (UTC): 02 December 2020 21:17:55
Eccentricity: 0.0030501
inclination: 82.9334°
perigee height: 948 km
apogee height: 993 km
right ascension of ascending node: 78.3467°
argument of perigee: 18.0006°
revolutions per day: 13.77971317
mean anomaly at epoch: 342.2225°
orbit number at epoch: 35739

The dashed part of the orbit path shows where the satellite is in the earth's shadow,  

DLR